RH
72 33 90 100 99 100 100 100 100 100 100 100 100 100 100 100 100 100 100 100 89 97 93 95 100 100 100 100 100 100 100 100 94 83 82 78 96 95 95 86 79 94 86
91 67 17 97 100 71 94 100 100 100 100 100 100 100 100 100 100 100 100 100 100 100 100 100 100 100 100 100 100 100 100 100 100 86 82 75 88 86 90 89 76 87 100
22 45 100 71 99 91 72 92 89 99 100 95 100 100 91 97 100 100 100 100 99 100 100 99 92 82 88 96 100 100 100 100 100 100 100 96 100 93 95 89 81 76 91
22 20 20 52 79 87 81 81 77 85 91 97 100 100 100 100 97 90 90 95 100 100 100 100 100 96 100 100 100 100 100 100 100 98 100 93 88 93 96 84 81 87 83
29 23 22 24 22 35 36 25 20 18 22 47 81 86 100 100 100 96 94 97 100 100 100 100 100 100 99 93 96 85 80 83 92 82 75 78 79 72 68 63 74 80 82
43 30 27 26 26 22 26 26 28 35 26 32 41 55 79 100 100 100 100 100 100 100 100 100 100 100 100 99 92 81 86 81 66 76 77 72 86 74 50 40 43 53 64
53 51 50 37 29 33 27 52 47 32 38 35 40 43 46 79 88 100 100 100 100 100 100 100 100 100 100 100 100 94 93 91 93 77 94 95 83 58 57 45 46 48 57
57 76 62 62 46 35 36 28 31 54 80 96 53 42 60 58 57 50 69 76 92 100 100 100 100 100 100 100 100 100 100 87 98 100 85 81 78 68 60 64 64 66 64
51 64 88 66 64 51 43 39 34 32 58 90 100 73 100 89 100 90 100 100 94 81 79 100 100 96 87 100 96 100 100 92 98 100 100 94 100 82 89 98 79 91 92
52 53 66 77 76 69 67 52 42 35 28 28 66 100 100 100 100 100 100 100 100 100 93 91 100 100 100 100 100 100 100 100 100 100 100 100 100 100 100 100 88 84 81
86 58 62 81 72 79 67 76 75 53 39 35 28 57 85 100 100 100 100 100 100 100 100 100 100 100 100 100 100 100 100 100 100 100 100 100 100 100 100 100 92 84 76
100 83 59 70 77 76 82 76 69 76 65 44 36 31 33 72 100 100 100 100 100 91 100 100 100 100 100 100 100 100 100 100 100 100 100 100 100 100 100 98 92 77 61
100 100 77 68 70 76 82 75 75 64 64 58 49 43 35 28 73 100 100 92 100 100 100 100 100 100 100 100 100 99 100 100 100 100 100 100 100 100 100 95 75 69 56
100 100 100 79 71 70 73 78 77 73 55 57 60 56 52 48 45 66 100 100 100 100 100 100 100 100 100 100 100 100 100 100 100 100 100 100 100 100 100 94 74 81 53
99 100 100 97 82 74 68 76 76 82 77 57 59 65 60 61 58 61 57 65 92 93 85 100 100 100 100 100 100 100 100 100 100 100 100 100 100 100 89 81 76 96 100
95 89 82 90 95 99 78 71 78 74 80 73 59 53 56 56 58 52 46 60 48 39 69 100 100 100 100 100 100 100 100 100 100 100 100 100 100 94 97 100 100 100 96
83 74 68 73 94 99 78 76 80 83 78 89 67 53 58 66 56 51 46 45 40 31 27 100 100 100 100 100 100 100 100 100 100 100 100 100 100 100 100 100 100 100 100
92 73 77 76 84 82 78 83 75 88 83 83 83 72 58 63 55 54 47 44 43 32 24 100 100 100 100 100 100 100 100 100 100 100 100 100 100 100 94 94 94 92 90
96 88 77 76 88 86 84 96 93 98 80 81 100 77 55 58 54 48 46 46 48 46 44 51 100 100 100 100 100 100 100 100 100 100 100 100 100 100 100 75 83 97 99
96 88 84 84 84 82 76 85 99 86 78 80 77 68 66 61 59 57 56 52 48 50 61 61 83 100 100 100 100 100 100 100 100 100 100 100 100 100 99 100 100 99 100
46 76 89 89 73 61 68 71 85 90 93 96 97 100 99 80 74 69 59 54 54 52 55 79 84 81 100 100 100 100 100 100 99 100 95 82 87 100 100 93 100 100 100
25 26 28 33 29 27 30 47 72 76 98 99 90 90 80 69 61 56 53 54 52 61 66 70 97 99 84 78 90 100 100 100 100 100 100 100 100 100 100 100 98 82 79
25 24 23 21 20 21 23 26 31 40 52 67 67 57 52 48 40 38 42 47 53 75 77 73 76 86 87 94 94 84 59 56 62 90 100 100 100 97 90 77 58 72 85
22 24 27 27 25 22 23 22 23 24 27 29 31 29 27 28 26 28 33 38 57 82 89 96 92 99 100 100 100 100 81 79 88 89 74 66 72 72 71 76 79 77 84
22 24 24 25 28 28 26 25 23 23 22 24 27 29 28 26 24 26 30 35 49 74 96 99 100 100 100 100 99 89 80 84 90 83 90 88 83 77 72 64 64 72 72
21 21 23 24 26 27 28 25 23 25 26 24 26 29 30 28 25 25 27 31 43 50 66 87 98 100 97 96 97 96 90 90 86 84 83 75 63 61 60 65 69 60 61
Wind_Speed
80 89 79 80 80 74 73 76 72 71 74 79 75 71 70 67 67 71 69 67 67 62 60 57 55 54 54 55 57 59 56 56 55 55 57 57 58 56 54 53 53 52 53
54 78 86 92 87 81 69 67 74 70 67 73 80 73 72 74 74 68 65 64 59 58 57 57 57 56 56 58 57 57 56 55 58 58 58 60 61 60 57 56 54 54 54
44 59 83 89 91 87 79 69 70 68 70 71 70 76 80 73 73 73 71 69 66 61 61 63 62 64 63 60 59 59 59 59 58 59 61 62 64 64 61 58 57 54 54
18 40 53 63 93 97 90 91 91 89 90 85 81 80 79 77 81 79 73 71 70 71 69 69 67 65 64 64 62 61 61 62 60 60 61 63 64 63 60 60 59 57 57
23 22 36 57 65 71 75 85 86 86 86 91 88 90 85 80 80 79 78 80 76 75 76 75 72 71 70 70 68 71 70 68 67 68 69 70 68 63 64 67 63 63 59
31 27 25 32 48 66 72 73 75 78 82 81 83 84 83 83 86 85 82 83 84 81 79 80 80 76 75 76 75 74 74 76 75 73 73 73 69 70 70 71 73 70 70
34 34 30 30 33 38 41 54 63 68 71 75 78 81 80 81 82 84 87 85 81 78 80 80 80 82 78 72 79 80 77 78 76 74 73 75 75 74 76 78 77 79 77
39 38 39 38 37 39 42 43 51 63 67 70 74 75 71 75 75 73 75 78 79 81 79 79 84 87 84 80 82 75 80 80 76 78 83 83 86 83 83 83 85 82 81
45 42 44 44 44 44 48 49 45 43 57 76 80 76 75 74 74 78 75 77 79 81 82 82 81 85 84 83 82 85 85 83 85 85 89 92 86 89 90 92 93 87 88
53 48 47 48 49 48 50 49 49 48 50 48 73 86 90 81 87 85 83 79 82 84 80 78 82 84 85 85 85 86 86 89 89 94 95 89 94 96 100 96 97 95 93
61 55 52 52 52 53 50 54 55 53 49 50 48 67 83 88 97 94 89 82 77 82 84 87 87 91 90 91 90 91 92 91 96 98 97 96 97 99 98 98 100 99 100
66 65 59 58 57 57 58 55 55 57 55 54 50 52 52 83 94 85 87 80 85 89 89 90 88 93 97 94 96 89 95 90 82 92 90 93 96 103 98 104 103 107 106
72 70 69 64 64 62 61 62 58 57 56 57 55 53 52 48 65 90 94 84 84 90 95 91 93 99 98 99 97 98 95 93 96 98 101 101 100 100 103 106 111 108 109
76 75 73 71 70 69 64 61 63 60 58 57 58 55 53 53 52 55 88 93 96 99 108 108 106 103 96 95 103 96 100 97 96 101 103 100 101 102 100 108 108 105 111
80 80 78 77 74 72 68 66 65 67 63 60 60 58 57 56 56 60 65 65 73 66 81 87 107 103 107 103 98 97 101 99 101 95 99 101 99 104 105 107 108 103 102
83 82 80 77 73 72 69 69 68 68 68 64 63 63 65 62 62 62 66 70 73 81 78 95 70 79 91 99 105 95 98 102 104 101 101 100 100 106 106 100 99 106 112
77 77 76 72 73 73 71 69 69 69 72 70 67 63 64 65 64 64 66 67 72 74 70 94 79 68 77 86 95 102 104 100 104 106 110 111 107 107 106 105 107 114 117
78 73 70 71 71 72 69 68 68 69 71 72 71 69 61 66 63 62 62 65 67 65 55 94 92 90 83 84 80 84 93 100 101 99 101 106 107 110 116 112 114 119 121
86 80 76 73 73 74 69 69 70 70 69 69 72 72 69 66 67 66 66 62 62 58 52 70 93 88 94 92 97 90 91 101 104 104 107 109 112 113 118 126 124 127 130
97 89 83 80 80 81 76 71 74 72 71 71 72 71 70 67 67 66 67 67 63 62 55 48 82 109 113 107 109 105 101 101 106 112 111 114 118 122 129 127 135 136 142
102 99 95 92 89 88 87 80 78 79 79 77 75 76 76 77 75 73 71 70 67 64 60 53 53 63 111 117 118 117 118 118 120 125 132 137 137 136 140 143 145 149 146
100 100 97 95 91 87 88 90 89 89 88 86 85 83 82 82 81 79 78 75 71 69 63 61 56 54 57 71 107 118 125 129 132 136 140 143 142 139 143 140 144 146 129
99 98 96 94 89 86 85 85 85 89 90 89 89 87 86 84 83 81 79 77 74 72 70 67 64 63 62 62 64 66 71 84 103 125 141 146 149 148 142 128 100 89 88
95 95 93 91 89 86 85 85 84 86 86 84 83 79 79 79 78 78 78 77 74 74 73 71 67 65 67 68 70 71 73 72 70 70 72 74 76 79 80 83 86 91 95
93 94 93 92 91 88 87 87 82 80 83 84 83 82 80 78 77 76 76 76 74 73 74 74 72 73 72 73 76 77 79 76 76 76 77 78 80 82 85 89 93 98 102
96 96 94 92 90 89 88 88 82 80 81 81 81 83 82 79 78 77 75 75 75 74 76 78 78 78 79 80 80 82 83 81 81 81 82 84 86 89 93 96 101 104 106
Wind_Direction
229 217 215 217 220 218 224 224 231 236 237 243 243 246 246 247 253 258 261 264 265 266 269 267 267 268 268 269 272 280 281 284 286 289 291 293 293 294 294 293 291 291 292
226 225 223 217 222 222 224 228 230 237 242 246 246 246 248 252 253 254 257 259 259 261 262 263 264 266 270 269 271 275 279 281 287 287 289 289 289 293 292 290 290 290 291
233 220 226 223 223 226 228 228 231 233 238 245 248 250 253 252 253 254 254 255 257 256 258 261 264 262 262 266 271 273 278 282 281 282 283 284 285 286 288 288 289 288 289
243 243 226 234 233 235 239 244 245 247 249 248 248 250 251 253 253 255 258 258 259 257 259 263 265 266 266 267 268 272 274 276 278 279 280 280 284 285 287 289 287 287 288
248 228 228 230 228 237 244 245 248 248 251 249 252 255 252 252 254 256 255 255 256 259 263 266 266 265 266 267 269 270 271 274 277 280 280 282 283 285 286 287 289 285 288
262 247 232 225 231 233 235 240 243 248 247 249 251 252 251 255 255 254 255 257 259 260 260 262 263 265 267 270 269 272 274 276 278 277 279 280 281 283 287 289 289 286 290
264 262 256 247 244 247 243 237 238 241 245 246 248 250 249 250 249 250 254 254 256 258 261 263 266 266 268 270 271 272 274 277 277 274 278 280 281 284 284 288 290 291 294
260 257 250 250 249 247 253 256 256 246 247 250 249 247 250 250 253 255 256 255 258 258 257 259 264 267 268 268 269 273 274 276 276 278 280 283 285 285 285 288 290 288 291
260 252 250 248 244 244 245 249 247 248 253 246 250 247 255 248 252 257 256 259 259 260 262 261 264 268 270 266 272 274 275 274 276 279 278 282 281 285 287 290 291 289 290
262 255 252 249 248 246 248 253 253 252 253 254 246 244 250 246 252 257 257 258 260 261 262 266 266 264 265 268 272 273 272 278 275 276 277 278 283 286 287 286 288 288 289
262 260 254 252 252 250 249 249 252 255 253 252 255 246 243 243 249 251 256 258 258 259 263 267 266 263 263 263 268 268 272 273 275 275 278 280 281 282 281 284 286 287 288
256 259 258 254 251 251 251 252 250 250 255 256 255 254 258 247 247 251 253 257 254 261 264 270 267 265 266 264 269 272 275 273 264 274 273 277 275 280 279 284 286 286 287
252 254 259 261 256 253 251 252 253 251 252 254 255 256 257 256 251 244 248 252 263 259 265 265 261 264 266 266 267 273 268 266 267 268 274 278 277 279 281 284 285 288 287
251 254 256 261 259 255 253 254 252 251 252 252 252 253 253 252 252 248 246 251 257 258 258 259 257 262 259 259 266 265 268 268 271 272 274 273 276 278 279 283 286 288 289
250 251 255 258 254 252 253 253 253 251 252 254 251 249 250 251 250 246 244 251 252 266 268 266 260 256 256 261 262 262 264 267 268 269 271 273 275 277 280 283 285 289 290
250 251 250 250 249 251 251 251 251 252 251 252 254 253 250 251 251 254 253 252 254 256 250 245 251 255 255 256 255 259 260 263 263 265 270 271 275 278 280 279 280 286 287
245 246 248 247 247 249 251 249 249 249 249 249 251 257 255 252 257 256 259 259 260 258 262 237 235 243 253 252 255 256 257 263 266 267 269 269 272 274 276 277 280 284 286
244 243 243 245 247 248 250 251 250 249 249 250 251 252 257 252 255 256 258 261 263 266 274 233 230 237 242 242 246 249 255 258 262 262 264 268 270 271 273 275 281 283 286
242 242 244 243 245 248 249 251 249 248 249 251 251 251 254 256 255 259 260 262 264 268 275 249 229 234 238 237 239 243 250 256 258 261 264 266 269 271 271 278 283 283 285
243 243 241 242 245 248 249 249 249 247 249 251 252 254 258 258 260 263 266 263 263 263 266 272 239 239 241 242 245 247 248 253 258 261 262 262 264 272 274 279 279 285 284
244 243 241 242 244 247 249 248 248 249 251 253 254 256 259 263 264 266 265 265 263 261 262 264 265 258 244 246 248 248 250 255 258 262 266 268 270 273 275 279 281 284 287
244 245 244 243 244 245 246 247 247 250 252 253 254 255 258 261 262 263 264 264 262 261 260 258 260 264 262 259 254 257 257 259 260 263 264 266 269 274 278 282 283 286 287
243 245 246 247 245 243 243 243 244 246 249 252 254 255 257 257 259 259 259 261 260 259 260 259 259 259 260 261 264 263 264 263 264 264 265 269 270 274 279 281 281 282 284
241 242 245 248 248 245 245 243 243 243 245 250 253 254 255 255 256 257 256 258 257 258 259 260 262 263 264 265 265 266 266 268 270 271 273 274 274 274 277 280 282 283 284
242 242 243 243 245 244 244 244 243 244 245 247 251 255 255 254 253 254 255 254 254 255 258 258 258 260 261 263 265 267 267 269 271 272 274 276 277 278 279 280 282 284 286
239 238 239 239 240 241 242 244 242 245 246 245 248 252 253 253 251 252 253 254 255 255 256 257 257 258 260 262 264 266 268 270 272 274 274 275 278 280 281 282 282 285 289